Wind_Speed
78 73 69 66 59 54 52 50 49 48 47 44 41 41 38 35 44 41 38 42 40 39 39 38 35 34 33 33 33 33 32 32 29 29 28 32 32 35 37 39 42 40 42 41 42 45 43 46 50
79 79 76 74 70 63 61 57 56 51 49 46 46 44 42 41 43 43 40 44 42 40 39 37 35 35 34 33 33 31 31 30 30 30 30 32 34 35 38 41 42 42 43 44 47 47 48 50 53
79 81 83 77 75 76 74 67 58 54 53 49 49 49 47 46 46 47 42 43 41 39 39 38 37 36 35 34 34 35 34 33 33 32 32 33 37 38 41 40 41 42 42 46 49 50 52 54 57
84 84 83 82 79 77 77 76 66 60 58 56 54 54 51 51 51 52 46 48 47 44 43 41 40 38 38 38 39 39 38 37 37 37 35 37 39 42 41 41 43 43 44 47 45 47 52 54 60
88 88 88 86 82 79 78 76 75 67 64 61 59 58 55 53 54 54 51 52 51 49 47 45 44 44 42 41 42 41 42 41 40 40 40 40 43 43 42 42 42 45 49 46 48 52 50 53 60
86 88 91 92 85 82 81 78 76 77 74 69 66 64 60 59 58 58 55 55 54 53 51 49 49 49 48 46 44 46 45 44 44 43 42 43 44 45 44 44 43 45 47 47 49 50 52 58 63
90 90 92 92 85 86 86 82 81 79 77 76 74 70 63 65 64 62 60 60 59 56 55 53 53 53 52 50 48 47 46 45 45 48 47 45 47 47 45 45 48 50 48 47 48 47 52 65 63
91 94 94 92 88 86 91 87 86 85 83 78 78 77 75 71 69 68 65 63 62 61 60 58 57 56 56 53 51 50 49 48 49 50 48 52 49 48 45 47 49 49 50 50 48 50 61 62 67
92 94 96 91 93 97 94 93 94 89 88 84 81 80 78 77 75 74 71 68 66 65 65 62 61 60 58 57 55 54 53 53 52 51 53 55 52 51 49 50 49 50 48 49 48 54 62 65 69
92 95 96 98 98 100 102 97 98 97 93 89 87 86 86 84 82 79 75 73 73 70 68 68 68 66 63 63 61 60 57 58 55 55 55 55 55 55 52 52 49 49 52 51 55 60 66 65 66
89 92 98 102 97 103 105 105 103 101 99 99 94 90 90 85 84 83 79 79 79 75 73 73 71 70 66 66 63 65 62 59 58 59 58 55 56 56 53 55 54 53 57 59 62 60 67 65 62
87 90 93 99 104 105 106 109 108 107 103 107 101 96 91 91 88 85 81 81 84 82 78 77 74 72 71 69 65 65 66 62 57 58 57 59 59 58 61 61 58 59 60 63 60 66 67 67 69
85 88 88 94 105 107 115 110 114 113 108 109 104 100 97 93 91 89 86 84 85 85 82 78 79 76 74 73 71 71 67 64 63 60 63 62 59 61 62 64 63 62 62 65 66 69 70 68 63
82 86 89 92 97 104 111 114 113 116 116 113 110 107 103 100 94 93 92 88 88 85 84 81 81 80 78 75 77 77 71 67 68 68 66 64 59 60 61 65 67 69 68 71 73 71 72 63 65
85 86 87 89 93 98 104 113 113 118 111 114 109 112 110 103 100 95 93 91 86 90 87 86 85 82 81 80 80 78 75 73 72 70 67 67 64 64 62 68 69 73 74 74 69 71 67 65 65
86 86 88 88 91 93 101 111 109 114 115 114 112 114 112 112 106 102 98 97 94 85 84 89 90 84 83 83 81 80 75 73 77 74 70 66 65 68 72 69 68 69 67 70 72 70 68 67 67
86 89 88 87 93 93 95 102 105 112 114 114 114 113 113 107 110 108 104 100 100 99 93 87 88 90 88 90 86 82 77 80 77 74 70 64 67 67 68 68 68 68 70 74 73 71 73 70 66
79 84 87 89 90 94 98 99 99 104 110 111 111 113 111 114 108 110 110 100 99 104 103 98 91 88 85 72 82 75 77 82 83 82 70 76 69 68 69 66 64 67 68 68 70 71 74 69 69
72 75 79 85 88 92 95 97 102 103 104 109 115 110 113 111 110 111 110 107 102 103 107 98 96 89 83 85 68 66 72 75 73 72 66 64 70 73 63 62 63 66 69 68 64 74 76 72 73
68 69 72 74 82 87 91 92 96 101 107 108 109 109 108 113 115 117 113 113 107 106 104 104 101 98 95 86 81 82 73 75 67 71 71 75 68 67 64 67 68 73 65 59 72 73 73 76 76
64 66 65 66 70 79 87 93 97 102 104 110 112 110 107 111 114 116 114 116 119 116 113 109 113 103 106 101 98 90 86 81 74 74 70 72 76 74 68 72 76 77 70 73 79 79 80 77 72
61 62 62 60 62 70 75 88 94 105 106 109 116 113 103 107 114 116 118 120 119 115 116 102 101 97 95 94 87 88 86 82 79 79 78 73 72 69 78 83 88 83 76 78 84 91 80 80 74
60 59 59 60 60 61 67 75 84 88 97 106 115 117 104 99 104 101 97 102 107 116 113 109 103 96 96 95 94 92 91 88 82 76 76 77 75 85 92 91 83 81 79 85 90 79 80 76 82
55 57 59 59 61 59 63 66 76 79 88 94 104 119 115 109 103 99 94 106 107 107 118 117 116 112 107 104 101 102 101 97 88 84 86 86 91 99 94 82 81 80 91 86 82 76 76 73 68
57 55 58 61 62 65 59 63 73 80 87 93 100 104 110 121 124 116 109 104 100 98 102 105 109 110 113 108 105 102 102 96 97 95 95 101 100 97 87 85 85 83 88 76 70 74 80 76 71
62 60 60 59 63 66 62 67 68 77 87 92 98 107 110 113 118 125 127 127 120 120 115 110 104 100 106 108 107 106 102 101 96 94 93 91 88 87 88 82 83 83 73 69 70 77 84 76 79
69 66 64 62 62 60 62 70 76 75 77 84 94 102 111 115 116 120 123 127 130 131 131 129 127 124 117 97 94 92 88 86 77 78 78 74 74 79 79 83 79 73 66 78 77 88 83 76 79
68 70 68 67 65 63 63 68 75 74 82 80 81 89 101 112 120 122 124 125 127 131 133 131 129 132 133 131 124 112 95 87 80 77 78 79 84 80 77 78 72 73 78 88 91 85 80 79 77
58 65 72 73 71 71 70 72 74 78 81 85 86 87 90 99 113 123 127 127 127 129 132 133 132 132 132 134 133 129 124 124 120 109 104 98 95 82 82 77 85 96 105 93 88 85 78 79 76
51 57 66 72 76 76 75 75 81 84 84 86 90 91 94 96 102 114 126 131 131 132 132 132 133 132 130 134 134 133 130 126 125 122 120 117 113 112 109 106 102 104 101 93 86 79 77 76 73
Wind_Direction
235 232 233 233 230 227 237 236 226 211 208 204 204 207 211 216 219 225 221 227 230 237 243 246 251 255 257 261 267 269 272 278 283 289 293 298 302 305 308 311 318 322 325 325 320 319 322 323 330
233 232 233 234 233 230 231 230 230 216 211 210 211 208 212 218 224 223 226 232 232 234 238 243 247 251 255 257 262 266 270 273 279 286 290 293 296 299 305 312 316 319 325 323 321 320 320 322 325
235 234 234 235 234 232 234 232 229 222 214 213 219 212 210 215 223 224 224 233 233 235 239 240 244 251 254 257 261 263 266 272 278 280 289 296 296 299 303 311 319 322 320 320 322 323 322 324 330
239 236 236 237 235 236 235 232 235 227 222 216 218 222 216 217 223 225 222 228 231 232 235 241 242 245 249 256 259 264 268 273 281 283 286 293 300 302 303 312 317 320 321 318 322 326 326 329 329
237 239 237 234 233 237 237 238 237 233 229 225 222 222 223 221 226 228 227 230 231 232 233 238 242 244 244 252 260 264 269 274 275 281 284 289 297 303 302 309 313 315 316 316 317 322 323 329 327
236 235 236 235 232 234 237 239 239 235 235 234 228 224 223 224 228 232 232 235 236 236 235 237 244 247 248 247 255 261 264 271 271 278 284 288 291 299 300 304 310 313 314 313 316 322 324 325 327
236 234 235 235 237 236 233 236 238 237 236 234 231 230 225 229 232 234 236 236 240 241 239 240 244 247 252 254 258 262 263 267 270 274 280 288 289 292 300 302 304 309 310 310 313 315 319 325 326
233 234 231 232 238 236 233 235 236 236 240 236 234 234 235 230 234 236 236 240 242 245 246 244 245 248 252 256 259 262 265 269 274 275 280 284 290 292 298 304 302 309 310 309 308 314 321 325 324
233 234 233 234 236 235 234 231 235 236 237 238 239 237 232 232 233 237 237 237 243 248 248 246 248 249 253 258 260 263 264 267 272 274 277 281 288 293 297 301 303 305 306 310 312 312 319 321 325
233 233 231 232 231 231 233 234 232 235 235 237 239 240 235 234 237 235 237 238 241 246 247 250 250 251 252 256 259 263 265 266 270 273 277 282 285 290 292 298 298 305 308 309 310 313 317 320 324
235 232 229 229 230 229 231 233 234 235 235 236 237 238 239 238 236 237 237 240 241 245 247 248 249 251 253 254 258 260 265 267 268 271 275 281 286 289 290 295 295 302 301 305 309 315 315 322 324
236 234 233 230 230 229 230 231 232 234 235 234 235 236 239 239 238 239 236 239 242 244 246 250 249 252 254 256 258 260 263 265 268 275 277 282 284 287 291 290 291 297 301 305 310 312 316 316 318
236 236 235 232 231 232 230 229 230 233 236 238 236 236 236 238 240 241 242 242 243 243 245 247 248 250 253 255 255 258 260 263 265 269 275 278 284 287 290 289 291 295 300 303 305 311 316 316 317
239 237 234 233 231 233 233 232 229 232 234 238 238 236 237 236 238 239 243 243 248 247 247 247 253 252 252 256 258 260 262 262 267 275 276 277 283 285 285 289 292 295 299 299 305 311 312 314 317
239 238 236 235 233 231 232 235 233 233 234 237 237 238 236 237 237 239 241 241 248 250 252 254 254 258 259 258 262 260 261 264 269 277 278 276 279 280 285 289 292 296 298 300 305 309 312 312 317
241 239 237 235 234 233 232 233 233 232 236 237 237 238 239 238 238 238 240 239 240 244 247 250 251 256 260 261 262 264 265 270 273 274 278 277 274 277 283 287 294 295 297 302 303 311 312 315 318
243 240 238 234 235 234 234 234 232 232 236 238 237 238 240 242 241 240 241 241 241 243 243 248 253 253 257 262 263 263 267 269 269 270 273 270 271 278 281 287 290 292 297 302 306 308 314 314 318
243 242 238 235 235 234 234 233 232 234 235 237 237 238 239 239 241 242 242 244 244 243 244 248 249 254 255 254 260 263 264 262 264 268 268 268 273 281 287 289 285 291 297 303 305 307 312 310 314
242 242 238 235 232 233 234 233 232 232 233 237 238 238 238 237 238 242 242 241 241 242 241 245 248 248 248 253 257 253 254 259 260 262 262 269 275 279 279 278 283 292 294 297 297 307 306 309 311
239 241 240 237 232 232 232 232 233 232 230 233 235 237 237 235 238 241 241 241 242 241 242 244 247 243 246 249 248 252 247 252 253 260 271 274 278 278 278 280 282 293 294 298 298 302 303 305 307
239 238 239 240 234 232 231 230 231 232 231 232 233 235 235 234 234 236 238 243 243 244 244 245 248 250 246 249 250 251 253 255 259 269 271 267 273 279 280 283 287 289 286 289 296 300 304 301 305
240 239 239 239 237 235 232 231 231 230 232 232 232 232 233 237 235 238 240 240 242 244 245 246 246 246 246 246 246 249 251 257 262 269 271 266 267 269 279 282 286 285 285 286 291 297 301 301 299
242 238 239 239 238 235 232 232 233 235 232 231 230 228 224 225 229 231 230 232 239 240 241 242 242 244 246 247 246 246 249 256 261 262 250 266 265 274 284 283 278 282 281 291 292 297 299 297 298
242 241 239 238 238 236 235 233 235 234 236 233 232 228 222 221 218 220 228 237 240 241 241 242 242 241 241 247 248 252 249 252 257 258 262 267 272 274 276 273 273 275 285 290 293 292 294 298 294
239 239 239 239 237 237 235 236 236 233 235 235 230 229 229 227 225 223 225 228 228 229 233 237 242 243 242 244 247 249 250 250 250 252 256 262 266 269 270 271 279 282 285 288 285 288 296 297 294
237 236 237 236 237 239 236 239 238 237 234 235 234 229 228 229 231 233 234 234 231 238 237 238 240 241 244 245 246 247 248 251 255 257 257 260 260 263 270 271 276 284 276 279 281 288 294 296 295
237 237 236 235 236 237 239 240 242 242 241 238 236 235 231 230 232 234 236 236 236 237 239 242 244 246 244 242 244 246 245 252 256 256 257 261 266 265 261 262 268 273 271 285 282 288 291 294 293
237 237 237 237 237 235 237 240 240 240 243 241 241 239 238 237 236 237 238 239 240 241 241 242 243 244 246 247 246 244 240 241 244 248 252 258 254 255 261 258 262 269 276 281 287 288 291 292 290
241 238 238 239 237 237 237 239 244 242 242 244 242 241 240 239 240 240 240 241 243 243 243 245 246 246 247 248 249 249 251 253 253 251 254 252 256 257 258 260 265 273 280 283 285 286 289 286 287
241 239 238 239 240 240 238 241 244 245 246 246 246 245 242 242 242 242 242 242 243 244 245 246 246 246 247 247 248 250 251 253 253 256 258 259 259 260 264 270 273 276 278 279 281 284 283 283 285
Height
10900 10906 10911 10917 10921 10926 10925 10929 10935 10937 10940 10945 10949 10951 10954 10955 10957 10960 10963 10962 10965 10967 10970 10972 10974 10975 10975 10976 10976 10976 10976 10976 10977 10977 10977 10977 10976 10975 10974 10972 10970 10968 10965 10962 10959 10956 10953 10948 10943
10888 10892 10899 10906 10911 10913 10911 10919 10924 10932 10939 10940 10944 10945 10946 10950 10951 10954 10958 10959 10961 10962 10964 10966 10968 10969 10970 10971 10971 10972 10972 10972 10972 10972 10972 10971 10971 10970 10969 10968 10965 10963 10960 10957 10954 10949 10946 10942 10938
10874 10879 10884 10892 10895 10895 10898 10910 10918 10927 10931 10934 10938 10939 10939 10943 10944 10945 10950 10952 10954 10957 10958 10958 10960 10962 10964 10965 10966 10966 10967 10967 10967 10967 10967 10967 10965 10965 10964 10962 10960 10958 10955 10952 10948 10944 10940 10936 10932
10858 10865 10871 10877 10877 10884 10891 10900 10910 10918 10923 10926 10930 10934 10935 10936 10936 10937 10941 10943 10945 10948 10950 10952 10952 10953 10956 10958 10958 10959 10960 10961 10961 10962 10961 10960 10960 10958 10957 10956 10953 10951 10949 10946 10943 10940 10937 10932 10928
10843 10850 10856 10860 10863 10878 10883 10889 10900 10910 10913 10918 10922 10926 10929 10931 10929 10930 10934 10935 10937 10940 10944 10945 10945 10945 10946 10949 10951 10953 10954 10955 10955 10955 10955 10955 10954 10952 10951 10950 10949 10947 10943 10940 10938 10935 10930 10926 10922
10827 10833 10841 10844 10855 10866 10869 10877 10884 10891 10898 10907 10911 10917 10919 10922 10923 10922 10926 10928 10930 10932 10935 10939 10940 10938 10939 10940 10942 10943 10946 10947 10948 10949 10948 10949 10949 10947 10946 10946 10944 10942 10939 10935 10932 10929 10924 10920 10916
10810 10815 10824 10830 10845 10855 10855 10861 10867 10873 10882 10890 10900 10905 10910 10913 10914 10915 10917 10921 10922 10924 10927 10931 10932 10932 10932 10934 10935 10935 10937 10939 10941 10941 10941 10941 10942 10942 10941 10940 10939 10938 10934 10930 10927 10923 10920 10915 10909
10792 10796 10806 10820 10834 10840 10841 10847 10849 10857 10865 10878 10880 10890 10898 10901 10903 10904 10908 10911 10913 10915 10918 10921 10923 10924 10924 10926 10926 10928 10930 10932 10934 10933 10934 10934 10935 10935 10934 10934 10933 10931 10928 10926 10921 10919 10915 10910 10904
10768 10783 10793 10809 10816 10819 10823 10832 10832 10842 10848 10860 10866 10874 10882 10888 10890 10893 10896 10901 10902 10904 10907 10911 10914 10916 10917 10918 10918 10919 10922 10923 10926 10926 10925 10926 10927 10928 10928 10927 10927 10925 10922 10919 10916 10913 10909 10905 10899
10752 10764 10776 10784 10790 10798 10802 10814 10816 10824 10831 10842 10848 10856 10864 10873 10874 10881 10888 10891 10892 10892 10896 10900 10903 10906 10910 10908 10910 10910 10913 10914 10916 10918 10917 10918 10919 10919 10920 10920 10919 10917 10915 10912 10911 10907 10904 10900 10893
10735 10749 10752 10760 10772 10775 10783 10796 10800 10810 10817 10820 10831 10840 10845 10856 10862 10869 10877 10878 10879 10879 10884 10888 10892 10894 10899 10900 10901 10902 10903 10905 10905 10908 10910 10911 10912 10911 10912 10911 10911 10909 10907 10905 10902 10901 10896 10892 10885
10716 10724 10733 10746 10748 10756 10764 10772 10787 10783 10792 10789 10811 10821 10832 10840 10849 10856 10863 10865 10864 10871 10870 10877 10880 10882 10885 10890 10893 10893 10893 10894 10897 10900 10901 10902 10903 10903 10903 10901 10901 10900 10899 10897 10894 10893 10888 10886 10879
10698 10706 10716 10723 10731 10735 10741 10753 10757 10769 10779 10782 10797 10808 10818 10825 10836 10844 10850 10853 10852 10857 10858 10862 10866 10870 10873 10878 10881 10883 10885 10886 10888 10891 10892 10893 10895 10895 10894 10891 10891 10890 10890 10888 10887 10884 10882 10877 10871
10684 10687 10694 10703 10709 10716 10725 10727 10740 10750 10762 10768 10777 10788 10798 10810 10820 10826 10833 10840 10840 10844 10847 10851 10853 10858 10863 10866 10868 10871 10876 10877 10876 10883 10883 10884 10885 10885 10884 10878 10879 10881 10880 10879 10879 10877 10874 10869 10863
10662 10668 10676 10683 10690 10700 10706 10711 10724 10728 10746 10747 10757 10766 10777 10790 10802 10807 10818 10828 10832 10833 10835 10838 10840 10844 10850 10852 10853 10859 10865 10866 10867 10871 10873 10875 10876 10872 10873 10870 10868 10868 10869 10870 10869 10869 10865 10861 10854
10639 10646 10655 10664 10671 10677 10681 10685 10701 10717 10721 10729 10740 10747 10759 10768 10779 10790 10799 10809 10816 10819 10825 10821 10825 10832 10837 10840 10840 10843 10853 10855 10854 10859 10864 10865 10863 10863 10862 10861 10858 10857 10857 10858 10858 10858 10856 10851 10845
10616 10623 10633 10648 10647 10657 10660 10665 10688 10692 10701 10707 10719 10728 10740 10749 10759 10770 10778 10788 10799 10801 10805 10810 10812 10821 10825 10823 10828 10835 10842 10841 10842 10846 10851 10851 10851 10851 10851 10850 10848 10848 10847 10845 10843 10844 10845 10841 10836
10597 10600 10609 10621 10627 10633 10640 10649 10662 10671 10681 10685 10698 10708 10717 10728 10736 10749 10759 10769 10777 10783 10788 10790 10803 10805 10811 10805 10819 10823 10828 10827 10831 10834 10837 10838 10842 10840 10841 10839 10840 10838 10840 10835 10833 10830 10834 10832 10828
10574 10578 10585 10594 10607 10611 10618 10628 10640 10651 10660 10667 10675 10688 10697 10706 10717 10726 10736 10748 10755 10764 10772 10776 10782 10794 10798 10801 10805 10807 10814 10814 10819 10818 10823 10828 10830 10832 10832 10828 10829 10829 10830 10830 10826 10825 10824 10821 10817
10556 10561 10566 10576 10586 10594 10600 10612 10616 10627 10639 10645 10650 10664 10673 10684 10694 10705 10713 10722 10734 10746 10755 10761 10763 10775 10783 10788 10793 10796 10798 10804 10807 10809 10816 10815 10818 10820 10821 10820 10820 10821 10824 10822 10813 10819 10818 10814 10809
10540 10546 10553 10558 10569 10572 10580 10589 10597 10605 10616 10624 10632 10642 10652 10661 10673 10681 10690 10700 10712 10723 10734 10741 10747 10754 10765 10773 10780 10785 10789 10792 10799 10801 10804 10805 10804 10806 10808 10808 10810 10812 10815 10814 10809 10808 10808 10810 10801
10525 10534 10540 10545 10550 10554 10565 10566 10576 10581 10590 10601 10611 10620 10632 10640 10652 10661 10670 10681 10690 10702 10714 10724 10730 10737 10746 10754 10763 10772 10777 10782 10788 10791 10792 10794 10791 10793 10799 10801 10800 10802 10805 10804 10802 10802 10799 10795 10794
10509 10518 10525 10529 10534 10540 10544 10552 10551 10553 10565 10575 10586 10599 10613 10625 10637 10643 10654 10663 10672 10683 10694 10706 10713 10721 10728 10736 10745 10754 10762 10769 10774 10778 10775 10783 10781 10782 10784 10787 10788 10793 10792 10794 10793 10789 10787 10784 10776
10497 10504 10509 10513 10518 10524 10527 10535 10532 10534 10541 10550 10560 10575 10593 10608 10618 10626 10634 10642 10649 10658 10669 10679 10689 10698 10707 10715 10725 10736 10745 10753 10758 10764 10767 10767 10769 10771 10773 10774 10776 10780 10780 10782 10780 10777 10772 10769 10766
10482 10487 10491 10497 10502 10503 10517 10516 10512 10519 10522 10530 10543 10555 10570 10584 10596 10605 10612 10620 10625 10633 10642 10653 10664 10673 10684 10692 10702 10714 10724 10734 10742 10748 10752 10754 10757 10759 10757 10756 10759 10767 10767 10766 10766 10762 10759 10756 10755
10463 10470 10474 10481 10483 10489 10503 10500 10499 10497 10504 10513 10522 10533 10547 10558 10570 10576 10584 10595 10603 10608 10616 10627 10638 10649 10658 10669 10682 10694 10704 10715 10723 10728 10734 10738 10740 10741 10741 10742 10746 10750 10751 10751 10750 10747 10746 10745 10743
10444 10450 10458 10464 10469 10478 10484 10482 10479 10484 10486 10495 10501 10512 10524 10535 10540 10545 10555 10564 10576 10587 10594 10602 10613 10623 10636 10646 10660 10674 10686 10693 10704 10711 10714 10721 10723 10725 10727 10728 10731 10733 10735 10739 10738 10737 10733 10733 10730
10426 10432 10442 10446 10454 10461 10465 10462 10458 10469 10467 10474 10482 10493 10501 10508 10513 10519 10528 10538 10549 10559 10569 10579 10590 10600 10611 10622 10640 10654 10669 10679 10686 10693 10701 10706 10706 10709 10712 10713 10718 10720 10723 10725 10723 10722 10722 10718 10716
10408 10416 10421 10427 10436 10441 10447 10447 10446 10444 10450 10454 10460 10466 10473 10479 10483 10493 10503 10512 10521 10531 10541 10551 10563 10576 10587 10598 10610 10628 10642 10657 10673 10684 10687 10689 10696 10698 10700 10701 10702 10707 10711 10712 10710 10710 10711 10703 10703
10391 10396 10402 10408 10414 10421 10429 10435 10427 10427 10432 10435 10437 10444 10448 10452 10457 10464 10472 10482 10492 10501 10511 10522 10535 10547 10561 10575 10590 10606 10621 10632 10645 10656 10662 10670 10680 10686 10687 10690 10691 10693 10695 10697 10697 10697 10695 10690 10690